This is the latest recevied weather packets stored in our database for station/object K0QJ. If no packets are shown the sender has not sent any weather packets the latest 10 day(s).
| Time | Temp. | Humidity | Pressure | Rain* | Wind** | Luminosity | Snow |
|---|---|---|---|---|---|---|---|
| 1777561419 | 14.44° C | 62% | 1018.1 hPa | 0 mm | - | 157 W/m² | - |
| 1777561115 | 13.89° C | 62% | 1018.2 hPa | 0 mm | - | 182 W/m² | - |
| 1777560810 | 13.89° C | 61% | 1018.3 hPa | 0 mm | - | 176 W/m² | - |
| 1777560508 | 14.44° C | 62% | 1018 hPa | 0 mm | - | 196 W/m² | - |
| 1777560205 | 14.44° C | 61% | 1018.3 hPa | 0 mm | - | 182 W/m² | - |
| 1777559902 | 13.89° C | 61% | 1018 hPa | 0 mm | - | 249 W/m² | - |
| 1777559597 | 13.89° C | 62% | 1018.1 hPa | 0 mm | - | 170 W/m² | - |
| 1777559296 | 13.89° C | 63% | 1018.1 hPa | 0 mm | - | 150 W/m² | - |
| 1777558991 | 13.89° C | 61% | 1018 hPa | 0 mm | - | 140 W/m² | - |
| 1777558687 | 13.89° C | 61% | 1018 hPa | 0 mm | - | 189 W/m² | - |
| 1777558383 | 13.89° C | 62% | 1017.9 hPa | 0 mm | - | 150 W/m² | - |
| 1777558079 | 13.89° C | 63% | 1018.2 hPa | 0 mm | - | 175 W/m² | - |
| 1777557776 | 13.33° C | 63% | 1018.1 hPa | 0 mm | - | 170 W/m² | - |
| 1777557472 | 13.33° C | 64% | 1017.9 hPa | 0 mm | - | 132 W/m² | - |
| 1777557169 | 12.78° C | 63% | 1018.1 hPa | 0 mm | - | 121 W/m² | - |
| 1777556864 | 12.78° C | 65% | 1018 hPa | 0 mm | - | 119 W/m² | - |
| 1777556561 | 12.78° C | 66% | 1018.2 hPa | 0 mm | - | 127 W/m² | - |
| 1777556260 | 12.22° C | 69% | 1018.1 hPa | 0 mm | - | 123 W/m² | - |
| 1777555956 | 11.67° C | 70% | 1018 hPa | 0 mm | - | 108 W/m² | - |
| 1777555652 | 11.67° C | 70% | 1018.1 hPa | 0 mm | - | 79 W/m² | - |
| 1777555349 | 11.11° C | 72% | 1017.6 hPa | 0 mm | - | 52 W/m² | - |
| 1777555045 | 11.11° C | 73% | 1017.8 hPa | 0 mm | - | 58 W/m² | - |
| 1777554742 | 11.11° C | 72% | 1018.1 hPa | 0 mm | - | 42 W/m² | - |
| 1777554440 | 10.56° C | 74% | 1018 hPa | 0 mm | - | 39 W/m² | - |
| 1777554136 | 10° C | 75% | 1018 hPa | 0 mm | - | 36 W/m² | - |
* Rain latest hour (hover to see other rain measurements)
** Current wind speed in m/s (hover to see current wind gust speed)